Date,TemperatureHighF,TemperatureAvgF,TemperatureLowF,DewpointHighF,DewpointAvgF,DewpointLowF,HumidityHigh,HumidityAvg,HumidityLow,PressureMaxIn,PressureMinIn,WindSpeedMaxMPH,WindSpeedAvgMPH,GustSpeedMaxMPH,PrecipitationSumIn
2013-1-1,50.1,44.9,38.2,41.6,33.7,16.7,91,66,33,30.17,29.97,13,1,13,0.03
2013-1-2,41.7,38.2,32.4,37.7,27.6,15.6,93,67,42,30.28,30.02,13,2,13,0.00
2013-1-3,44.5,34.1,23.5,27.9,21.8,15.7,85,62,33,30.34,30.24,11,1,11,0.00
2013-1-4,43.2,35.2,26.7,23.1,20.4,18.1,72,55,40,30.39,30.29,15,3,15,0.00
2013-1-5,49.7,38.0,28.8,34.6,22.7,18.1,87,56,31,30.48,30.30,18,1,18,0.00
2013-1-6,49.5,41.2,27.2,34.7,30.3,24.9,92,67,47,30.31,30.14,14,2,14,0.01
2013-1-7,47.4,37.0,24.7,29.1,24.8,21.9,89,63,41,30.54,30.25,16,2,16,0.00
2013-1-8,53.7,33.2,18.9,35.5,26.6,16.5,93,79,49,30.56,30.45,9,0,9,0.00
2013-1-9,59.8,43.7,26.6,47.9,37.3,24.9,95,80,51,30.53,30.43,11,1,11,0.00
2013-1-10,53.7,47.4,38.3,35.9,32.0,29.2,73,56,45,30.55,30.50,9,1,9,0.00
2013-1-11,41.0,40.4,39.7,39.3,38.6,36.5,96,93,86,30.44,30.22,3,0,3,0.04
2013-1-12,72.8,52.7,38.8,59.6,48.8,37.8,97,88,62,30.25,30.16,5,0,5,0.00
2013-1-13,70.1,58.5,53.3,61.0,55.5,51.3,97,90,69,30.17,30.05,13,0,13,0.00
2013-1-14,58.2,54.7,47.0,57.4,52.8,44.9,97,93,82,30.30,30.07,14,1,14,0.60
2013-1-15,47.0,41.4,37.7,45.1,40.0,36.6,96,95,91,30.35,30.19,8,0,8,1.72
2013-1-16,49.4,41.2,37.2,46.0,39.6,36.1,97,94,81,30.20,30.03,15,1,15,0.38
2013-1-17,47.7,39.3,32.9,44.2,36.4,31.4,96,90,77,30.25,30.07,13,2,13,1.11
2013-1-18,40.0,33.2,23.6,32.5,23.8,17.3,93,70,42,30.61,30.24,20,2,20,0.04
2013-1-19,51.9,33.3,19.6,33.3,25.8,17.9,95,77,32,30.56,30.19,11,1,11,0.01
2013-1-20,55.2,43.6,25.9,33.0,27.3,22.0,94,55,32,30.20,30.05,23,3,23,0.00
2013-1-21,52.5,37.6,23.7,26.8,19.0,4.1,88,52,25,30.17,29.94,28,3,28,0.00
2013-1-22,31.2,23.6,18.5,7.9,-0.6,-4.8,52,34,25,30.39,30.07,20,4,20,0.00
2013-1-23,32.7,25.4,14.9,20.2,5.8,-3.4,72,44,25,30.45,30.14,16,2,16,0.00
2013-1-24,32.9,26.1,18.8,19.5,7.4,-0.6,64,46,30,30.63,30.09,26,4,26,0.00
2013-1-25,22.9,19.5,15.0,19.5,13.1,2.5,89,77,48,30.62,30.18,12,1,12,0.00
2013-1-26,39.7,30.5,18.9,25.8,20.9,16.2,93,69,53,30.52,30.17,15,2,15,0.09
2013-1-27,34.4,27.8,17.3,26.0,21.1,14.4,90,76,64,30.70,30.52,12,1,12,0.00
2013-1-28,52.4,37.6,30.0,43.2,34.1,25.5,95,88,67,30.57,30.26,5,0,5,0.16
2013-1-29,73.1,51.0,33.7,52.5,42.6,32.3,97,76,45,30.28,30.07,12,1,12,0.00
2013-1-30,64.8,58.4,46.1,61.5,56.0,44.2,97,92,83,30.08,29.39,22,3,22,3.36
2013-1-31,54.3,38.8,29.1,48.6,24.3,16.3,90,56,40,30.02,29.43,21,6,25,0.02